TimeMST,TemperatureF,Dew PointF,Humidity,Sea Level PressureIn,VisibilityMPH,Wind Direction,Wind SpeedMPH,Gust SpeedMPH,PrecipitationIn,Events,Conditions,WindDirDegrees,DateUTC
12:53 AM,19.0,15.1,85,30.33,10.0,ESE,3.5,-,N/A,,Clear,120,2014-01-21 07:53:00
1:53 AM,16.0,12.0,84,30.31,10.0,ENE,5.8,-,N/A,,Clear,60,2014-01-21 08:53:00
2:53 AM,16.0,12.0,84,30.30,10.0,ESE,4.6,-,N/A,,Clear,120,2014-01-21 09:53:00
3:53 AM,14.0,10.0,84,30.26,10.0,East,6.9,-,N/A,,Clear,90,2014-01-21 10:53:00
4:53 AM,15.1,12.0,88,30.24,10.0,ENE,6.9,-,N/A,,Clear,70,2014-01-21 11:53:00
5:53 AM,14.0,10.9,88,30.25,10.0,East,5.8,-,N/A,,Clear,90,2014-01-21 12:53:00
6:53 AM,16.0,12.9,88,30.24,10.0,Calm,Calm,-,N/A,,Clear,0,2014-01-21 13:53:00
7:53 AM,30.0,12.9,49,30.20,10.0,WNW,8.1,-,N/A,,Clear,290,2014-01-21 14:53:00
8:53 AM,36.0,14.0,41,30.20,10.0,NW,12.7,-,N/A,,Clear,320,2014-01-21 15:53:00
9:53 AM,44.1,12.9,28,30.19,10.0,WNW,11.5,-,N/A,,Clear,300,2014-01-21 16:53:00
10:53 AM,50.0,12.0,22,30.18,10.0,West,11.5,-,N/A,,Clear,280,2014-01-21 17:53:00
11:53 AM,53.1,8.1,16,30.14,10.0,WNW,16.1,24.2,N/A,,Clear,290,2014-01-21 18:53:00
12:53 PM,54.0,5.0,14,30.12,10.0,NW,27.6,40.3,N/A,,Clear,320,2014-01-21 19:53:00
1:53 PM,54.0,6.1,15,30.12,10.0,NW,25.3,34.5,N/A,,Clear,320,2014-01-21 20:53:00
2:53 PM,53.1,10.0,18,30.13,10.0,NNW,21.9,32.2,N/A,,Clear,330,2014-01-21 21:53:00
3:53 PM,51.1,12.0,21,30.15,10.0,NNW,19.6,29.9,N/A,,Clear,330,2014-01-21 22:53:00
4:53 PM,46.0,12.9,26,30.18,10.0,NNW,8.1,18.4,N/A,,Clear,340,2014-01-21 23:53:00
5:53 PM,37.9,12.9,36,30.23,10.0,WNW,8.1,-,N/A,,Clear,300,2014-01-22 00:53:00
6:53 PM,37.0,14.0,39,30.25,10.0,WSW,4.6,-,N/A,,Clear,250,2014-01-22 01:53:00
7:53 PM,37.0,16.0,42,30.20,10.0,NW,8.1,-,N/A,,Clear,320,2014-01-22 02:53:00
8:53 PM,32.0,16.0,52,30.19,10.0,WSW,4.6,-,N/A,,Clear,250,2014-01-22 03:53:00
9:53 PM,28.0,15.1,58,30.17,10.0,WNW,9.2,-,N/A,,Clear,290,2014-01-22 04:53:00
10:53 PM,25.0,14.0,63,30.17,10.0,West,8.1,-,N/A,,Clear,280,2014-01-22 05:53:00
11:53 PM,24.1,15.1,69,30.16,10.0,West,8.1,-,N/A,,Clear,280,2014-01-22 06:53:00